Location: Silverdale
(47.6506°N, 122.6941°W)
Time: 10:45:09
(UTC+00:00)

Courier 1B - Pass Details

Date: 08 October 2022
Orbit: 962 x 1209 km, 28.3° (Epoch: 04 December)

Event Time Altitude Azimuth Distance (km) Brightness Sun altitude
Rises 23:09:09 0° 243° (WSW) 4,043 12.2 21.8°
Reaches altitude 10° 23:13:35 10° 221° (SW) 3,034 12.0 21.2°
Maximum altitude 23:17:13 14° 192° (SSW) 2,677 10.7 20.7°
Drops below altitude 10° 23:20:48 10° 162° (SSE) 2,943 10.3 20.2°
Sets 23:24:58 0° 139° (SE) 3,842 10.5 19.6°
